Track STARLINK-5404 now! 10-day predictions STARLINK-5404 is classified as:
1 54769U 22175M 24325.91668981 .01228168 00000-0 33621-1 0 9996 2 54769 53.2170 10.0115 0001175 107.5285 94.9607 15.34160849 5552